Location: Mat�lon
(46.2791°N, 7.1028°E)
Time: 10:15:30
(UTC+00:00)

Cosmos 2142 Rocket - Pass Details

Date: 18 September 2020
Orbit: 952 x 1005 km, 82.9° (Epoch: 24 October)

Event Time Altitude Azimuth Distance (km) Brightness Sun altitude
Exits shadow 20:21:17 70° 91° (E) 1,048 4.4 -27.5°
Drops below altitude 10° 20:27:27 10° 13° (NNE) 2,731 7.1 -28.3°
Sets 20:29:58 0° 11° (N) 3,675 7.9 -28.7°
